| time (UTC) | temp C | wind direction | speed KPH | gust KPH | rain 1hr cm | rain 24hr cm | rain mn cm | humidity % | barometer mb |
| 20260506092048 | 23 | 148 | 4.8 | 0.0 | 0.00 | 0.00 | 0.00 | 89 | 1008.0 |
| 20260506091536 | 23 | 148 | 4.8 | 0.0 | 0.00 | 0.00 | 0.00 | 89 | 1007.9 |
| 20260506091014 | 23 | 155 | 3.2 | 0.0 | 0.00 | 0.00 | 0.00 | 89 | 1007.9 |
| 20260506090546 | 23 | 90 | 3.2 | 0.0 | 0.00 | 0.00 | 0.00 | 89 | 1007.9 |
| 20260506090039 | 23 | 90 | 1.6 | 0.0 | 0.00 | 0.00 | 0.00 | 89 | 1007.9 |
| 20260506085513 | 23 | 144 | 1.6 | 0.0 | 0.00 | 0.00 | 0.00 | 89 | 1007.9 |
| 20260506085053 | 23 | 144 | 3.2 | 0.0 | 0.00 | 0.00 | 0.00 | 89 | 1007.8 |
| 20260506084600 | 23 | 144 | 4.8 | 0.0 | 0.00 | 0.00 | 0.00 | 89 | 1007.7 |
| 20260506084027 | 23 | 142 | 4.8 | 0.0 | 0.00 | 0.00 | 0.00 | 89 | 1007.9 |
| 20260506083504 | 23 | 142 | 3.2 | 0.0 | 0.00 | 0.00 | 0.00 | 89 | 1007.9 |
| 20260506083058 | 23 | 142 | 3.2 | 0.0 | 0.00 | 0.00 | 0.00 | 89 | 1007.9 |
| 20260506082527 | 23 | 142 | 3.2 | 0.0 | 0.00 | 0.00 | 0.00 | 89 | 1007.8 |
| 20260506082006 | 23 | 142 | 4.8 | 0.0 | 0.00 | 0.00 | 0.00 | 89 | 1007.8 |
| 20260506081512 | 23 | 158 | 6.4 | 0.0 | 0.00 | 0.00 | 0.00 | 89 | 1007.8 |
| 20260506081046 | 23 | 144 | 6.4 | 0.0 | 0.00 | 0.00 | 0.00 | 89 | 1007.8 |
| 20260506080518 | 23 | 132 | 3.2 | 0.0 | 0.00 | 0.00 | 0.00 | 89 | 1007.8 |
| 20260506073032 | 23 | 118 | 4.8 | 0.0 | 0.00 | 0.00 | 0.00 | 89 | 1007.9 |
| 20260506072509 | 23 | 180 | 6.4 | 0.0 | 0.00 | 0.00 | 0.00 | 89 | 1007.9 |
| 20260506072047 | 23 | 158 | 8.0 | 0.0 | 0.00 | 0.00 | 0.00 | 89 | 1007.9 |
| 20260506071537 | 23 | 138 | 6.4 | 0.0 | 0.00 | 0.00 | 0.00 | 89 | 1008.0 |
| 20260506071014 | 23 | 142 | 6.4 | 0.0 | 0.00 | 0.00 | 0.00 | 89 | 1007.9 |
| 20260506070552 | 23 | 140 | 6.4 | 0.0 | 0.00 | 0.00 | 0.00 | 89 | 1007.8 |
| 20260506062032 | 24 | 142 | 8.0 | 0.0 | 0.00 | 0.00 | 0.00 | 88 | 1007.6 |
| 20260506061545 | 24 | 192 | 8.0 | 0.0 | 0.00 | 0.00 | 0.00 | 88 | 1007.7 |
| 20260506061017 | 24 | 167 | 8.0 | 0.0 | 0.00 | 0.00 | 0.00 | 89 | 1007.6 |
| 20260506060555 | 24 | 150 | 9.7 | 0.0 | 0.00 | 0.00 | 0.00 | 89 | 1007.7 |
| 20260506051036 | 24 | 136 | 6.4 | 0.0 | 0.00 | 0.00 | 0.00 | 88 | 1007.8 |
| 20260506050510 | 24 | 135 | 8.0 | 0.0 | 0.00 | 0.00 | 0.00 | 89 | 1007.8 |
| 20260506045022 | 24 | 138 | 8.0 | 0.0 | 0.00 | 0.00 | 0.00 | 88 | 1007.8 |
| 20260506044543 | 24 | 148 | 8.0 | 0.0 | 0.00 | 0.00 | 0.00 | 88 | 1007.8 |
| 20260506044106 | 24 | 158 | 9.7 | 0.0 | 0.00 | 0.00 | 0.00 | 88 | 1007.7 |
| 20260506043540 | 24 | 146 | 9.7 | 0.0 | 0.00 | 0.00 | 0.00 | 88 | 1007.7 |
| 20260506043043 | 24 | 119 | 8.0 | 0.0 | 0.00 | 0.00 | 0.00 | 88 | 1007.8 |
| 20260506042513 | 24 | 145 | 4.8 | 0.0 | 0.00 | 0.00 | 0.00 | 88 | 1007.8 |
| 20260506042052 | 24 | 145 | 4.8 | 0.0 | 0.00 | 0.00 | 0.00 | 88 | 1007.9 |
| 20260506041539 | 24 | 135 | 6.4 | 0.0 | 0.00 | 0.00 | 0.00 | 88 | 1007.8 |
| 20260506041018 | 24 | 148 | 4.8 | 0.0 | 0.00 | 0.00 | 0.00 | 87 | 1007.8 |
| 20260506040550 | 24 | 163 | 4.8 | 0.0 | 0.00 | 0.00 | 0.00 | 87 | 1007.7 |
| 20260506040050 | 25 | 178 | 6.4 | 0.0 | 0.00 | 0.00 | 0.00 | 87 | 1007.7 |
| 20260506035523 | 25 | 144 | 6.4 | 0.0 | 0.00 | 0.00 | 0.00 | 86 | 1007.5 |
| 20260506035105 | 25 | 142 | 6.4 | 0.0 | 0.00 | 0.00 | 0.00 | 86 | 1007.6 |
| 20260506034506 | 25 | 148 | 6.4 | 0.0 | 0.00 | 0.00 | 0.00 | 86 | 1007.5 |
| 20260506034041 | 25 | 144 | 6.4 | 0.0 | 0.00 | 0.00 | 0.00 | 85 | 1007.4 |
| 20260506033516 | 25 | 143 | 6.4 | 0.0 | 0.00 | 0.00 | 0.00 | 84 | 1007.3 |
| 20260506033025 | 25 | 135 | 6.4 | 0.0 | 0.00 | 0.00 | 0.00 | 84 | 1007.2 |
| 20260506032552 | 25 | 147 | 4.8 | 0.0 | 0.00 | 0.00 | 0.00 | 84 | 1007.2 |
| 20260506032028 | 25 | 151 | 4.8 | 0.0 | 0.00 | 0.00 | 0.00 | 83 | 1007.2 |
| 20260506031544 | 25 | 146 | 4.8 | 0.0 | 0.00 | 0.00 | 0.00 | 83 | 1007.1 |
| 20260506031007 | 25 | 146 | 3.2 | 0.0 | 0.00 | 0.00 | 0.00 | 83 | 1007.0 |
| 20260506030548 | 25 | 146 | 3.2 | 0.0 | 0.00 | 0.00 | 0.00 | 82 | 1007.0 |
| 20260506030051 | 25 | 146 | 4.8 | 0.0 | 0.00 | 0.00 | 0.00 | 82 | 1006.8 |
| 20260506025521 | 25 | 146 | 4.8 | 0.0 | 0.00 | 0.00 | 0.00 | 82 | 1006.8 |
| 20260506025057 | 25 | 146 | 4.8 | 0.0 | 0.00 | 0.00 | 0.00 | 82 | 1006.8 |
| 20260506024603 | 25 | 146 | 4.8 | 0.0 | 0.00 | 0.00 | 0.00 | 82 | 1006.7 |
| 20260506024035 | 25 | 138 | 4.8 | 0.0 | 0.00 | 0.00 | 0.00 | 82 | 1006.5 |
| 20260506023508 | 25 | 153 | 4.8 | 0.0 | 0.00 | 0.00 | 0.00 | 82 | 1006.4 |
| 20260506023013 | 25 | 153 | 4.8 | 0.0 | 0.00 | 0.00 | 0.00 | 82 | 1006.4 |
| 20260506022548 | 25 | 161 | 4.8 | 0.0 | 0.00 | 0.00 | 0.00 | 81 | 1006.3 |
| 20260506022021 | 25 | 146 | 4.8 | 0.0 | 0.00 | 0.00 | 0.00 | 82 | 1006.2 |
| 20260506021524 | 25 | 146 | 3.2 | 0.0 | 0.00 | 0.00 | 0.00 | 82 | 1006.1 |
| 20260506021103 | 25 | 146 | 3.2 | 0.0 | 0.00 | 0.00 | 0.00 | 81 | 1006.1 |
| 20260506020536 | 25 | 146 | 1.6 | 0.0 | 0.00 | 0.00 | 0.00 | 81 | 1006.0 |
| 20260506020037 | 26 | 146 | 1.6 | 0.0 | 0.00 | 0.00 | 0.00 | 80 | 1006.0 |
| 20260506015507 | 26 | 146 | 1.6 | 0.0 | 0.00 | 0.00 | 0.00 | 80 | 1006.0 |
| 20260506015050 | 26 | 146 | 1.6 | 0.0 | 0.00 | 0.00 | 0.00 | 79 | 1006.0 |
| 20260506014548 | 26 | 146 | 3.2 | 0.0 | 0.00 | 0.00 | 0.00 | 79 | 1005.9 |
| 20260506014020 | 26 | 146 | 4.8 | 0.0 | 0.00 | 0.00 | 0.00 | 79 | 1005.8 |
| 20260506013556 | 26 | 148 | 3.2 | 0.0 | 0.00 | 0.00 | 0.00 | 78 | 1005.8 |
| 20260506013043 | 26 | 148 | 3.2 | 0.0 | 0.00 | 0.00 | 0.00 | 78 | 1005.8 |
| 20260506012516 | 26 | 148 | 4.8 | 0.0 | 0.00 | 0.00 | 0.00 | 77 | 1005.7 |
| 20260506012102 | 26 | 137 | 4.8 | 0.0 | 0.00 | 0.00 | 0.00 | 77 | 1005.6 |
| 20260506011547 | 27 | 166 | 4.8 | 0.0 | 0.00 | 0.00 | 0.00 | 76 | 1005.6 |
| 20260506011020 | 27 | 167 | 4.8 | 0.0 | 0.00 | 0.00 | 0.00 | 76 | 1005.5 |
| 20260506010554 | 27 | 136 | 6.4 | 0.0 | 0.00 | 0.00 | 0.00 | 75 | 1005.6 |
| 20260506010054 | 27 | 136 | 6.4 | 0.0 | 0.00 | 0.00 | 0.00 | 74 | 1005.5 |
| 20260506005519 | 27 | 152 | 6.4 | 0.0 | 0.00 | 0.00 | 0.00 | 74 | 1005.5 |
| 20260506005101 | 27 | 134 | 8.0 | 0.0 | 0.00 | 0.00 | 0.00 | 73 | 1005.5 |
| 20260506004604 | 27 | 132 | 6.4 | 0.0 | 0.00 | 0.00 | 0.00 | 73 | 1005.5 |
| 20260506004037 | 27 | 148 | 6.4 | 0.0 | 0.00 | 0.00 | 0.00 | 73 | 1005.5 |
| 20260506003517 | 27 | 141 | 6.4 | 0.0 | 0.00 | 0.00 | 0.00 | 73 | 1005.6 |
| 20260506003023 | 27 | 152 | 6.4 | 0.0 | 0.00 | 0.00 | 0.00 | 72 | 1005.5 |
| 20260506002558 | 28 | 135 | 6.4 | 0.0 | 0.00 | 0.00 | 0.00 | 72 | 1005.5 |
| 20260506002034 | 28 | 151 | 6.4 | 0.0 | 0.00 | 0.00 | 0.00 | 72 | 1005.6 |
| 20260506001536 | 28 | 127 | 6.4 | 0.0 | 0.00 | 0.00 | 0.00 | 72 | 1005.6 |
| 20260506001009 | 28 | 142 | 6.4 | 0.0 | 0.00 | 0.00 | 0.00 | 72 | 1005.5 |
| 20260506000547 | 28 | 146 | 8.0 | 0.0 | 0.00 | 0.00 | 0.00 | 72 | 1005.6 |
| 20260506000054 | 28 | 152 | 6.4 | 0.0 | 0.00 | 0.00 | 0.00 | 71 | 1005.6 |
| 20260505235523 | 28 | 136 | 6.4 | 0.0 | 0.00 | 0.00 | 0.00 | 71 | 1005.7 |
| 20260505235102 | 28 | 133 | 6.4 | 0.0 | 0.00 | 0.00 | 0.00 | 71 | 1005.6 |
| 20260505234502 | 28 | 136 | 6.4 | 0.0 | 0.00 | 0.00 | 0.00 | 71 | 1005.6 |
| 20260505234040 | 28 | 136 | 8.0 | 0.0 | 0.00 | 0.00 | 0.00 | 70 | 1005.6 |
| 20260505233510 | 28 | 148 | 8.0 | 0.0 | 0.00 | 0.00 | 0.00 | 70 | 1005.5 |
| 20260505233015 | 28 | 151 | 9.7 | 0.0 | 0.00 | 0.00 | 0.00 | 70 | 1005.5 |
| 20260505232550 | 28 | 135 | 9.7 | 0.0 | 0.00 | 0.00 | 0.00 | 69 | 1005.4 |
| 20260505232029 | 28 | 165 | 8.0 | 0.0 | 0.00 | 0.00 | 0.00 | 69 | 1005.2 |
| 20260505231532 | 28 | 172 | 6.4 | 0.0 | 0.00 | 0.00 | 0.00 | 69 | 1005.2 |
| 20260505231005 | 28 | 152 | 8.0 | 0.0 | 0.00 | 0.00 | 0.00 | 68 | 1005.2 |
| 20260505230543 | 28 | 140 | 9.7 | 0.0 | 0.00 | 0.00 | 0.00 | 68 | 1005.2 |
| 20260505230040 | 28 | 194 | 9.7 | 0.0 | 0.00 | 0.00 | 0.00 | 68 | 1005.1 |
| 20260505225510 | 28 | 138 | 9.7 | 0.0 | 0.00 | 0.00 | 0.00 | 68 | 1005.0 |
| 20260505225049 | 28 | 140 | 9.7 | 0.0 | 0.00 | 0.00 | 0.00 | 69 | 1005.0 |
| 20260505224555 | 28 | 145 | 11.3 | 0.0 | 0.00 | 0.00 | 0.00 | 69 | 1004.9 |
| 20260505224028 | 28 | 121 | 9.7 | 0.0 | 0.00 | 0.00 | 0.00 | 68 | 1005.0 |
| 20260505223503 | 28 | 130 | 8.0 | 0.0 | 0.00 | 0.00 | 0.00 | 69 | 1005.1 |
| 20260505223005 | 28 | 147 | 8.0 | 0.0 | 0.00 | 0.00 | 0.00 | 69 | 1005.2 |
| 20260505222541 | 28 | 144 | 8.0 | 0.0 | 0.00 | 0.00 | 0.00 | 68 | 1005.1 |
| 20260505222012 | 28 | 157 | 9.7 | 0.0 | 0.00 | 0.00 | 0.00 | 68 | 1005.0 |
| 20260505221603 | 28 | 129 | 9.7 | 0.0 | 0.00 | 0.00 | 0.00 | 68 | 1004.9 |
| 20260505221035 | 29 | 128 | 6.4 | 0.0 | 0.00 | 0.00 | 0.00 | 68 | 1004.9 |
| 20260505220514 | 29 | 140 | 9.7 | 0.0 | 0.00 | 0.00 | 0.00 | 68 | 1005.0 |
| 20260505220019 | 28 | 142 | 12.9 | 0.0 | 0.00 | 0.00 | 0.00 | 69 | 1005.1 |
| 20260505215557 | 29 | 140 | 11.3 | 0.0 | 0.00 | 0.00 | 0.00 | 67 | 1005.1 |
| 20260505215027 | 29 | 137 | 9.7 | 0.0 | 0.00 | 0.00 | 0.00 | 68 | 1005.2 |
| 20260505214529 | 29 | 141 | 9.7 | 0.0 | 0.00 | 0.00 | 0.00 | 68 | 1005.2 |
| 20260505214003 | 29 | 130 | 9.7 | 0.0 | 0.00 | 0.00 | 0.00 | 68 | 1005.2 |
| 20260505213543 | 29 | 166 | 8.0 | 0.0 | 0.00 | 0.00 | 0.00 | 67 | 1005.2 |
| 20260505213036 | 29 | 151 | 9.7 | 0.0 | 0.00 | 0.00 | 0.00 | 68 | 1005.3 |
| 20260505212513 | 29 | 142 | 9.7 | 0.0 | 0.00 | 0.00 | 0.00 | 67 | 1005.5 |
| 20260505212048 | 30 | 120 | 9.7 | 0.0 | 0.00 | 0.00 | 0.00 | 68 | 1005.5 |
| 20260505211554 | 29 | 144 | 11.3 | 0.0 | 0.00 | 0.00 | 0.00 | 68 | 1005.5 |
| 20260505211025 | 29 | 135 | 9.7 | 0.0 | 0.00 | 0.00 | 0.00 | 68 | 1005.6 |
| 20260505210603 | 29 | 141 | 9.7 | 0.0 | 0.00 | 0.00 | 0.00 | 68 | 1005.6 |
| 20260505210006 | 29 | 146 | 11.3 | 0.0 | 0.00 | 0.00 | 0.00 | 68 | 1005.8 |
| 20260505205547 | 29 | 144 | 11.3 | 0.0 | 0.00 | 0.00 | 0.00 | 69 | 1005.8 |
| 20260505205016 | 29 | 140 | 9.7 | 0.0 | 0.00 | 0.00 | 0.00 | 68 | 1005.8 |
| 20260505204522 | 29 | 150 | 9.7 | 0.0 | 0.00 | 0.00 | 0.00 | 68 | 1005.9 |
| 20260505204058 | 29 | 131 | 9.7 | 0.0 | 0.00 | 0.00 | 0.00 | 70 | 1005.9 |
| 20260505203532 | 29 | 180 | 9.7 | 0.0 | 0.00 | 0.00 | 0.00 | 68 | 1005.8 |
| 20260505203037 | 30 | 133 | 8.0 | 0.0 | 0.00 | 0.00 | 0.00 | 66 | 1006.1 |
| 20260505202512 | 30 | 148 | 6.4 | 0.0 | 0.00 | 0.00 | 0.00 | 66 | 1006.1 |
| 20260505202048 | 30 | 134 | 6.4 | 0.0 | 0.00 | 0.00 | 0.00 | 67 | 1006.1 |
| 20260505201556 | 30 | 126 | 6.4 | 0.0 | 0.00 | 0.00 | 0.00 | 66 | 1006.3 |
| 20260505201021 | 29 | 207 | 4.8 | 0.0 | 0.00 | 0.00 | 0.00 | 66 | 1006.5 |
| 20260505200557 | 29 | 246 | 4.8 | 0.0 | 0.00 | 0.00 | 0.00 | 67 | 1006.5 |
| 20260505200059 | 28 | 213 | 6.4 | 0.0 | 0.00 | 0.00 | 0.00 | 68 | 1006.5 |
| 20260505195536 | 28 | 155 | 8.0 | 0.0 | 0.00 | 0.00 | 0.00 | 68 | 1006.4 |
| 20260505195007 | 28 | 256 | 9.7 | 0.0 | 0.00 | 0.00 | 0.00 | 68 | 1006.5 |
| 20260505194513 | 28 | 168 | 11.3 | 0.0 | 0.00 | 0.00 | 0.00 | 69 | 1006.7 |
| 20260505194051 | 28 | 152 | 11.3 | 0.0 | 0.00 | 0.00 | 0.00 | 69 | 1006.6 |
| 20260505193525 | 28 | 126 | 8.0 | 0.0 | 0.00 | 0.00 | 0.00 | 69 | 1006.7 |
| 20260505193032 | 28 | 137 | 8.0 | 0.0 | 0.00 | 0.00 | 0.00 | 68 | 1006.8 |
| 20260505192506 | 28 | 217 | 8.0 | 0.0 | 0.00 | 0.00 | 0.00 | 69 | 1006.8 |
| 20260505192048 | 28 | 163 | 6.4 | 0.0 | 0.00 | 0.00 | 0.00 | 68 | 1006.8 |
| 20260505191605 | 28 | 143 | 6.4 | 0.0 | 0.00 | 0.00 | 0.00 | 69 | 1006.9 |
| 20260505191027 | 28 | 136 | 8.0 | 0.0 | 0.00 | 0.00 | 0.00 | 69 | 1007.0 |
| 20260505190604 | 28 | 137 | 11.3 | 0.0 | 0.00 | 0.00 | 0.00 | 69 | 1007.1 |
| 20260505190059 | 28 | 156 | 9.7 | 0.0 | 0.00 | 0.00 | 0.00 | 69 | 1007.1 |
| 20260505185525 | 27 | 145 | 9.7 | 0.0 | 0.00 | 0.00 | 0.00 | 72 | 1007.0 |
| 20260505185102 | 27 | 128 | 8.0 | 0.0 | 0.00 | 0.00 | 0.00 | 71 | 1007.1 |
| 20260505184550 | 27 | 169 | 6.4 | 0.0 | 0.00 | 0.00 | 0.00 | 70 | 1007.2 |
| 20260505184025 | 27 | 232 | 6.4 | 0.0 | 0.00 | 0.00 | 0.00 | 72 | 1007.3 |
| 20260505183605 | 27 | 159 | 6.4 | 0.0 | 0.00 | 0.00 | 0.00 | 71 | 1007.3 |
| 20260505183113 | 27 | 145 | 4.8 | 0.0 | 0.00 | 0.00 | 0.00 | 71 | 1007.6 |
| 20260505182533 | 27 | 134 | 4.8 | 0.0 | 0.00 | 0.00 | 0.00 | 73 | 1007.7 |
| 20260505182002 | 27 | 135 | 6.4 | 0.0 | 0.00 | 0.00 | 0.00 | 73 | 1007.9 |
| 20260505181553 | 27 | 142 | 6.4 | 0.0 | 0.00 | 0.00 | 0.00 | 74 | 1007.9 |
| 20260505181029 | 26 | 166 | 8.0 | 0.0 | 0.00 | 0.00 | 0.00 | 74 | 1007.9 |
| 20260505180502 | 26 | 180 | 8.0 | 0.0 | 0.00 | 0.00 | 0.00 | 75 | 1007.9 |
| 20260505180006 | 26 | 138 | 8.0 | 0.0 | 0.00 | 0.00 | 0.00 | 76 | 1008.0 |
| 20260505175542 | 25 | 161 | 8.0 | 0.0 | 0.00 | 0.00 | 0.00 | 77 | 1007.9 |
| 20260505175018 | 25 | 151 | 8.0 | 0.0 | 0.00 | 0.00 | 0.00 | 76 | 1008.2 |
| 20260505174520 | 25 | 129 | 6.4 | 0.0 | 0.00 | 0.00 | 0.00 | 77 | 1008.3 |
| 20260505174104 | 25 | 175 | 4.8 | 0.0 | 0.00 | 0.00 | 0.00 | 78 | 1008.3 |
| 20260505173536 | 25 | 123 | 4.8 | 0.0 | 0.00 | 0.00 | 0.00 | 80 | 1008.3 |
| 20260505173049 | 25 | 186 | 6.4 | 0.0 | 0.00 | 0.00 | 0.00 | 79 | 1008.3 |
| 20260505172512 | 25 | 219 | 6.4 | 0.0 | 0.00 | 0.00 | 0.00 | 79 | 1008.3 |
| 20260505172051 | 25 | 175 | 4.8 | 0.0 | 0.00 | 0.00 | 0.00 | 81 | 1008.3 |
| 20260505171601 | 24 | 130 | 4.8 | 0.0 | 0.00 | 0.00 | 0.00 | 81 | 1008.3 |
| 20260505171032 | 24 | 190 | 6.4 | 0.0 | 0.00 | 0.00 | 0.00 | 83 | 1008.4 |
| 20260505170607 | 24 | 149 | 4.8 | 0.0 | 0.00 | 0.00 | 0.00 | 82 | 1008.3 |
| 20260505170015 | 23 | 133 | 4.8 | 0.0 | 0.00 | 0.00 | 0.00 | 83 | 1008.4 |
| 20260505165544 | 23 | 250 | 6.4 | 0.0 | 0.00 | 0.00 | 0.00 | 83 | 1008.4 |
| 20260505165025 | 23 | 205 | 4.8 | 0.0 | 0.00 | 0.00 | 0.00 | 83 | 1008.4 |
| 20260505164527 | 23 | 145 | 4.8 | 0.0 | 0.00 | 0.00 | 0.00 | 84 | 1008.4 |
| 20260505164106 | 23 | 213 | 4.8 | 0.0 | 0.00 | 0.00 | 0.00 | 85 | 1008.4 |
| 20260505163536 | 23 | 142 | 4.8 | 0.0 | 0.00 | 0.00 | 0.00 | 84 | 1008.4 |
| 20260505163040 | 23 | 198 | 4.8 | 0.0 | 0.00 | 0.00 | 0.00 | 84 | 1008.5 |
| 20260505162512 | 23 | 132 | 4.8 | 0.0 | 0.00 | 0.00 | 0.00 | 85 | 1008.5 |
| 20260505162051 | 23 | 133 | 6.4 | 0.0 | 0.00 | 0.00 | 0.00 | 85 | 1008.5 |
| 20260505161551 | 23 | 276 | 6.4 | 0.0 | 0.00 | 0.00 | 0.00 | 85 | 1008.5 |
| 20260505161020 | 23 | 151 | 4.8 | 0.0 | 0.00 | 0.00 | 0.00 | 86 | 1008.5 |
| 20260505160602 | 22 | 137 | 4.8 | 0.0 | 0.00 | 0.00 | 0.00 | 86 | 1008.4 |
| 20260505153025 | 22 | 142 | 6.4 | 0.0 | 0.00 | 0.00 | 0.00 | 87 | 1008.3 |
| 20260505152500 | 22 | 140 | 4.8 | 0.0 | 0.00 | 0.00 | 0.00 | 87 | 1008.4 |
| 20260505152040 | 22 | 172 | 4.8 | 0.0 | 0.00 | 0.00 | 0.00 | 87 | 1008.4 |
| 20260505151536 | 22 | 146 | 6.4 | 0.0 | 0.00 | 0.00 | 0.00 | 88 | 1008.5 |
| 20260505151010 | 22 | 126 | 6.4 | 0.0 | 0.00 | 0.00 | 0.00 | 87 | 1008.5 |
| 20260505150549 | 22 | 147 | 4.8 | 0.0 | 0.00 | 0.00 | 0.00 | 88 | 1008.4 |
| 20260505140505 | 21 | 135 | 6.4 | 0.0 | 0.00 | 0.00 | 0.00 | 88 | 1007.9 |
| 20260505125005 | 21 | 186 | 4.8 | 0.0 | 0.00 | 0.00 | 0.00 | 88 | 1007.4 |
| 20260505124511 | 21 | 157 | 4.8 | 0.0 | 0.00 | 0.00 | 0.00 | 89 | 1007.4 |
| 20260505124050 | 21 | 180 | 6.4 | 0.0 | 0.00 | 0.00 | 0.00 | 89 | 1007.4 |
| 20260505123522 | 21 | 150 | 6.4 | 0.0 | 0.00 | 0.00 | 0.00 | 89 | 1007.3 |
| 20260505123024 | 21 | 180 | 6.4 | 0.0 | 0.00 | 0.00 | 0.00 | 89 | 1007.1 |
| 20260505122603 | 21 | 144 | 6.4 | 0.0 | 0.00 | 0.00 | 0.00 | 89 | 1007.1 |
| 20260505122036 | 21 | 150 | 6.4 | 0.0 | 0.00 | 0.00 | 0.00 | 89 | 1006.9 |
| 20260505121540 | 21 | 185 | 6.4 | 0.0 | 0.00 | 0.00 | 0.00 | 89 | 1006.8 |
| 20260505121011 | 21 | 150 | 6.4 | 0.0 | 0.00 | 0.00 | 0.00 | 89 | 1006.8 |
| 20260505120544 | 21 | 149 | 6.4 | 0.0 | 0.00 | 0.00 | 0.00 | 89 | 1006.7 |
| 20260505120057 | 21 | 155 | 8.0 | 0.0 | 0.00 | 0.00 | 0.00 | 89 | 1006.6 |
| 20260505115511 | 21 | 138 | 6.4 | 0.0 | 0.00 | 0.00 | 0.00 | 89 | 1006.6 |
| 20260505115048 | 21 | 148 | 8.0 | 0.0 | 0.00 | 0.00 | 0.00 | 89 | 1006.6 |
| 20260505114550 | 21 | 183 | 6.4 | 0.0 | 0.00 | 0.00 | 0.00 | 89 | 1006.5 |
| 20260505114023 | 21 | 141 | 6.4 | 0.0 | 0.00 | 0.00 | 0.00 | 89 | 1006.6 |
| 20260505113558 | 21 | 147 | 6.4 | 0.0 | 0.00 | 0.00 | 0.00 | 88 | 1006.6 |
| 20260505113048 | 21 | 146 | 6.4 | 0.0 | 0.00 | 0.00 | 0.00 | 88 | 1006.7 |
| 20260505112523 | 21 | 140 | 4.8 | 0.0 | 0.00 | 0.00 | 0.00 | 88 | 1006.7 |
| 20260505112055 | 21 | 146 | 6.4 | 0.0 | 0.00 | 0.00 | 0.00 | 88 | 1006.6 |
| 20260505111600 | 21 | 134 | 6.4 | 0.0 | 0.00 | 0.00 | 0.00 | 88 | 1006.6 |
| 20260505111030 | 21 | 142 | 6.4 | 0.0 | 0.00 | 0.00 | 0.00 | 88 | 1006.7 |
| 20260505110502 | 21 | 178 | 6.4 | 0.0 | 0.00 | 0.00 | 0.00 | 88 | 1006.6 |
| 20260505102026 | 21 | 153 | 6.4 | 0.0 | 0.00 | 0.00 | 0.00 | 88 | 1006.7 |
| 20260505101532 | 21 | 136 | 6.4 | 0.0 | 0.00 | 0.00 | 0.00 | 88 | 1006.9 |
| 20260505101005 | 21 | 162 | 6.4 | 0.0 | 0.00 | 0.00 | 0.00 | 88 | 1006.8 |
| 20260505100543 | 21 | 135 | 6.4 | 0.0 | 0.00 | 0.00 | 0.00 | 88 | 1006.9 |
| 20260505100035 | 21 | 153 | 6.4 | 0.0 | 0.00 | 0.00 | 0.00 | 88 | 1007.0 |
| 20260505095511 | 21 | 145 | 6.4 | 0.0 | 0.00 | 0.00 | 0.00 | 88 | 1007.0 |
| 20260505095050 | 21 | 142 | 6.4 | 0.0 | 0.00 | 0.00 | 0.00 | 88 | 1007.1 |
| 20260505094555 | 21 | 155 | 6.4 | 0.0 | 0.00 | 0.00 | 0.00 | 88 | 1007.0 |
| 20260505094034 | 21 | 141 | 6.4 | 0.0 | 0.00 | 0.00 | 0.00 | 88 | 1007.1 |
| 20260505093504 | 21 | 148 | 6.4 | 0.0 | 0.00 | 0.00 | 0.00 | 88 | 1007.1 |
| 20260505093006 | 21 | 173 | 6.4 | 0.0 | 0.00 | 0.00 | 0.00 | 88 | 1007.1 |
| 20260505092548 | 21 | 148 | 6.4 | 0.0 | 0.00 | 0.00 | 0.00 | 87 | 1007.1 |